Location: Olmeneta
(45.2333°N, 10.0167°E)
Time: 20:49:42
(UTC+00:00)

Meteor 1-11 Rocket - Pass Details

Date: 03 March 2021
Orbit: 831 x 916 km, 81.2° (Epoch: 13 April)

Event Time Altitude Azimuth Distance (km) Brightness Sun altitude
Rises 19:23:16 0° 191° (S) 3,468 6.8 -24.1°
Reaches altitude 10° 19:25:43 10° 192° (SSW) 2,521 6.1 -24.5°
Maximum altitude 19:31:27 82° 281° (W) 875 3.7 -25.4°
Drops below altitude 10° 19:37:06 10° 9° (N) 2,483 6.2 -26.4°
Sets 19:39:30 0° 11° (N) 3,412 7.0 -26.8°
